Wind_Speed
7 8 9 10 12 10 7 8 7 7 7 8 8 8 8 9 9 9 9 10 9 8 8 7 7 6 6 6 4 4 3 2 3 3 3 4 5 5 5 5 5 6 7 7 7 7 7 7 6
6 7 7 10 11 7 7 7 7 8 8 9 8 8 9 10 10 10 9 10 9 9 8 8 7 7 7 6 5 4 3 2 3 3 3 3 4 5 5 5 5 5 5 6 6 6 7 6 6
5 5 7 10 7 7 7 7 8 9 9 9 9 9 9 10 10 10 10 10 9 9 8 7 7 7 7 6 5 4 3 3 3 3 4 3 3 3 4 5 4 3 4 5 6 7 7 6 6
4 5 8 7 5 7 8 8 8 9 9 9 9 10 10 10 10 10 10 10 10 9 9 8 7 7 7 6 5 4 4 3 3 4 4 3 3 4 3 2 4 4 3 3 4 6 6 6 6
3 5 6 3 4 7 8 8 7 7 8 8 9 10 11 11 10 10 10 10 10 9 9 9 8 7 6 6 5 4 4 4 4 4 4 3 3 4 4 3 3 4 3 3 4 6 6 6 6
2 4 1 2 5 7 9 9 8 7 7 7 9 10 11 11 10 10 11 11 10 10 9 9 8 7 6 5 5 5 4 4 4 4 4 3 3 4 4 4 3 4 4 4 4 6 6 6 6
3 3 2 3 6 8 9 9 8 8 7 7 8 10 10 11 11 11 10 11 11 10 9 9 8 7 6 5 5 5 4 4 4 4 4 3 3 4 4 4 4 2 2 3 4 5 6 5 6
4 4 3 3 6 9 10 11 10 9 8 8 8 10 11 11 11 11 10 10 10 10 10 9 8 7 6 5 5 5 4 4 5 5 5 4 4 5 5 5 5 3 3 3 3 4 5 6 7
4 4 5 5 6 10 10 11 10 9 9 8 9 10 11 11 11 10 10 10 10 10 10 9 9 8 7 6 5 5 4 4 4 5 5 5 5 5 5 5 5 4 3 3 4 4 5 5 6
5 5 6 7 9 12 11 11 10 10 9 9 10 11 11 11 11 11 11 11 11 11 11 10 8 8 7 6 6 5 4 4 4 5 5 6 5 5 5 5 5 5 4 4 3 4 4 5 5
8 10 10 11 13 14 12 11 9 10 11 11 10 10 11 11 11 11 11 11 11 11 11 10 9 8 7 7 6 5 5 5 5 5 5 5 5 5 5 5 5 5 4 3 3 3 4 4 5
13 13 13 13 15 15 13 11 11 11 12 11 9 11 10 11 11 11 10 10 11 11 11 10 9 8 8 7 6 6 5 5 5 5 5 5 6 6 5 5 5 5 5 4 4 4 4 5 5
14 14 15 15 15 15 14 12 11 13 12 12 12 11 11 11 11 11 10 10 11 12 11 10 9 8 8 7 7 6 6 6 6 5 5 6 6 6 6 6 5 5 5 5 5 5 5 5 5
14 16 17 15 15 14 13 12 12 13 13 12 12 11 11 11 12 11 11 11 11 11 11 11 10 9 8 8 7 7 6 6 6 6 6 6 7 7 7 7 6 6 6 6 6 5 6 6 7
16 17 16 14 14 13 13 13 13 14 14 13 13 12 12 11 13 12 12 12 11 11 11 11 10 10 9 9 8 8 7 7 6 6 6 7 7 7 8 8 8 8 8 7 7 7 7 7 7
15 15 14 13 14 14 14 14 14 14 16 15 14 14 13 12 13 13 13 13 13 12 12 11 10 10 10 10 10 9 9 8 8 8 7 7 7 8 8 8 9 10 9 9 8 8 8 8 8
13 13 12 12 15 16 15 14 14 14 16 16 15 14 14 13 13 14 14 13 13 13 12 12 11 11 11 10 10 10 10 10 10 9 9 9 9 9 9 9 9 9 9 9 9 9 8 8 8
12 11 11 13 15 16 16 15 14 15 18 17 16 15 14 14 14 14 14 14 14 14 13 12 11 11 11 11 11 11 11 11 11 11 11 11 10 10 10 11 10 10 9 9 9 8 8 8 8
15 14 14 15 16 16 17 17 17 17 18 17 17 16 15 15 15 16 15 15 15 14 13 12 12 12 12 12 12 12 12 12 12 12 12 11 11 11 12 11 12 11 10 10 10 9 8 8 8
16 15 15 16 16 16 17 18 19 19 19 18 18 18 17 17 17 17 17 16 15 15 14 13 13 13 13 13 13 13 13 13 13 13 13 13 12 12 12 11 12 11 11 11 10 10 9 9 8
16 16 16 16 16 15 16 18 19 19 18 19 19 19 19 19 18 18 18 17 16 15 15 15 14 14 14 14 14 13 14 14 15 15 14 14 13 13 12 12 12 11 11 11 11 10 10 10 10
15 17 17 16 16 16 16 18 20 20 20 20 20 21 20 19 18 18 18 17 17 16 15 15 15 15 15 15 14 14 15 15 15 16 15 15 15 15 14 12 12 11 11 11 11 11 11 11 11
16 17 18 17 16 16 17 19 20 21 19 20 21 21 20 20 20 19 18 17 17 17 17 17 17 17 17 17 16 16 16 17 17 16 16 16 16 16 15 14 13 13 12 13 13 13 12 12 12
17 15 15 15 15 18 18 18 20 20 20 20 22 22 22 21 21 20 20 19 19 19 18 19 19 18 18 18 18 17 18 18 18 18 17 17 17 17 16 16 15 15 15 14 14 14 14 14 14
15 14 14 15 17 18 16 17 20 20 21 22 23 24 24 23 23 22 21 21 20 20 20 20 19 19 19 19 19 19 19 20 20 20 19 18 18 18 18 17 16 16 16 16 16 15 15 15 15
16 16 16 16 16 17 15 18 21 21 22 24 25 26 26 26 24 23 22 22 22 21 22 21 21 21 21 21 21 20 20 21 21 20 20 19 19 18 18 18 18 18 18 18 17 17 17 17 17
16 17 16 16 16 17 18 18 21 22 23 25 26 26 26 25 23 23 23 23 23 23 23 24 24 23 22 23 23 22 22 22 22 21 20 20 20 20 20 20 20 19 19 19 19 18 18 18 18
17 17 17 17 17 18 19 19 20 24 23 25 26 25 25 24 23 25 25 24 24 23 24 25 26 25 25 25 25 24 24 24 23 22 23 22 22 21 21 21 21 21 21 21 20 20 19 20 20
17 18 19 20 19 19 19 20 21 23 24 25 26 25 24 26 25 26 26 25 26 25 25 26 26 26 26 26 26 26 25 25 25 24 24 24 24 24 23 22 22 22 22 22 22 22 21 21 21
19 19 20 22 23 22 22 22 22 24 25 27 27 25 26 26 26 27 27 27 27 27 26 26 26 26 26 26 26 26 26 26 26 25 25 25 24 24 24 24 23 23 22 22 23 23 23 22 21
Wind_Direction
61 56 59 59 50 41 20 6 352 345 348 355 2 1 1 4 3 4 359 0 6 7 8 5 3 3 2 0 349 337 331 309 291 267 246 224 221 223 223 221 218 221 219 216 215 215 213 210 210
67 60 62 55 46 9 1 356 340 335 345 352 356 358 0 1 4 2 1 2 5 9 6 1 2 2 3 1 357 350 346 325 302 286 269 227 225 227 234 222 214 221 222 219 215 213 209 211 215
74 69 63 51 25 350 345 341 335 332 343 347 349 351 357 360 3 3 2 1 4 8 5 3 1 0 360 0 358 356 353 338 319 303 285 261 251 234 230 218 213 222 229 236 224 211 209 212 215
83 78 73 55 359 333 323 322 326 330 343 343 345 344 353 356 0 2 1 0 4 7 5 8 4 0 358 357 360 1 359 347 333 321 305 279 268 258 264 246 231 230 240 236 224 205 206 209 213
99 78 79 59 322 311 315 314 322 331 337 337 340 338 347 352 356 356 358 359 2 7 5 5 6 3 357 355 354 356 355 350 341 332 326 307 290 284 282 281 261 240 236 238 232 211 207 213 218
144 82 50 303 304 306 309 311 322 327 329 332 337 334 345 347 348 351 353 354 357 2 4 3 4 4 356 354 352 352 353 352 349 340 337 328 312 295 286 287 277 260 241 241 233 226 225 223 227
173 148 219 294 305 302 301 303 306 309 314 328 331 331 339 341 344 347 349 351 354 356 1 3 3 3 1 359 355 353 350 349 348 341 336 329 316 304 296 291 296 265 236 231 234 234 229 230 236
183 203 215 238 287 291 289 297 305 313 316 321 325 328 336 343 343 345 347 349 350 351 354 359 1 359 356 353 350 348 350 353 352 347 339 329 323 318 310 300 301 283 246 247 240 237 238 242 243
197 221 230 230 253 268 274 291 302 308 312 317 323 326 331 337 341 343 345 347 346 348 349 351 353 355 355 351 347 346 348 354 352 348 343 340 336 332 324 313 316 305 271 253 253 257 256 256 252
219 236 230 239 247 251 263 276 291 299 311 311 314 317 325 331 338 342 343 346 347 348 348 348 347 351 354 349 346 343 347 351 352 353 349 347 344 335 326 323 318 310 296 273 262 256 254 257 260
235 236 234 233 243 250 261 274 280 287 296 294 304 314 322 327 332 338 339 343 344 345 348 345 345 347 349 347 343 340 341 343 346 349 349 347 345 339 333 335 329 317 307 296 290 276 261 263 266
240 239 241 239 246 251 259 266 271 283 285 290 300 309 316 322 324 330 332 337 340 340 341 342 341 342 340 340 339 340 336 335 339 340 339 340 338 336 336 334 327 313 313 314 316 310 289 275 275
248 250 250 249 252 255 259 263 269 280 284 286 292 296 305 312 317 324 326 326 331 333 335 336 334 333 334 330 324 330 332 327 330 332 330 332 330 329 334 333 328 318 313 306 306 302 301 299 294
239 245 247 250 255 259 261 267 273 277 283 283 287 294 301 308 310 313 313 318 324 325 331 331 329 325 325 325 322 321 321 324 329 330 329 328 326 324 325 323 321 315 311 309 308 304 302 303 305
235 242 246 249 256 259 259 259 264 272 279 283 289 295 294 299 306 308 312 314 315 318 321 323 323 323 321 320 319 313 312 314 319 321 325 323 322 322 318 319 319 316 312 306 301 296 294 300 300
239 244 245 247 257 260 258 258 261 270 278 280 286 292 292 299 303 305 308 309 310 312 314 313 316 318 315 313 316 316 313 310 314 316 313 315 317 319 318 320 318 317 311 303 293 293 295 299 299
245 249 248 246 254 261 258 259 258 265 274 281 283 289 293 295 298 300 304 306 305 308 309 308 308 310 310 312 314 315 316 316 317 318 314 313 316 318 314 314 314 312 308 302 297 291 291 294 296
245 251 251 249 250 256 258 258 259 261 268 276 280 286 290 291 289 291 298 301 302 303 305 304 301 306 309 312 313 311 311 313 314 314 313 308 312 318 314 310 307 307 306 304 302 296 289 289 293
233 238 243 245 246 250 256 259 260 260 262 267 273 278 281 282 283 286 291 295 297 298 299 298 296 300 305 307 309 307 306 308 309 310 308 311 309 313 313 308 305 303 303 300 299 296 291 291 293
232 236 240 245 244 247 254 260 261 259 258 263 270 272 276 276 279 281 285 289 291 293 293 294 293 294 296 300 305 305 301 301 302 306 305 309 306 305 307 308 305 307 301 297 294 294 293 289 289
232 234 235 242 248 252 253 258 261 262 256 262 266 270 272 272 277 278 279 283 285 287 289 289 288 289 290 294 297 300 302 302 302 303 303 307 309 305 303 303 303 305 301 298 292 290 289 292 293
236 234 234 240 247 250 252 255 259 265 264 263 268 272 275 275 274 276 278 280 281 283 284 285 284 284 285 288 291 294 298 300 301 299 299 301 304 305 303 297 298 301 298 294 294 290 286 288 293
236 241 239 237 245 251 252 254 256 263 259 265 270 272 272 275 277 276 276 278 279 280 281 280 281 280 282 284 285 288 291 293 296 298 298 295 298 301 298 295 292 292 292 291 290 290 286 286 287
242 243 246 241 243 250 252 253 254 256 258 264 269 272 273 275 276 275 275 277 278 279 279 279 278 278 280 282 285 285 287 289 291 293 293 293 293 295 295 294 292 288 289 288 288 286 285 281 284
241 238 249 251 251 256 255 255 257 256 262 265 267 271 273 272 272 273 274 277 277 277 277 277 276 276 278 279 282 284 284 285 288 289 289 290 290 291 293 295 290 290 289 287 284 281 281 281 282
242 238 241 250 256 260 250 254 258 258 260 263 265 269 272 272 270 271 273 276 276 277 276 276 274 274 276 277 277 280 281 283 286 287 286 288 288 288 291 291 290 289 287 285 283 280 281 281 282
242 239 236 249 256 264 260 255 260 261 262 263 263 265 267 270 271 270 270 273 274 276 275 275 275 274 274 274 274 276 278 282 283 283 285 285 286 288 288 288 289 289 287 284 284 283 280 281 280
245 245 238 239 252 258 262 260 261 261 263 266 266 266 267 267 267 269 270 272 275 277 274 274 273 273 273 272 273 274 277 280 282 282 282 283 283 284 284 284 286 285 284 282 282 282 280 279 278
246 245 243 241 245 254 262 259 255 260 265 269 268 266 265 268 270 271 273 276 276 277 275 273 272 272 273 274 274 274 275 278 280 280 282 282 281 281 282 283 284 283 281 280 279 279 279 279 278
245 246 246 245 245 246 258 261 263 264 266 269 269 270 272 270 269 271 275 277 277 277 275 274 274 274 274 274 276 275 277 279 279 280 281 281 281 280 279 281 284 284 282 280 278 277 276 277 278
Height
5905 5905 5904 5904 5904 5904 5903 5903 5902 5900 5899 5897 5895 5894 5892 5891 5890 5890 5886 5884 5883 5882 5880 5879 5877 5876 5875 5874 5874 5873 5872 5872 5871 5871 5871 5870 5871 5871 5871 5871 5871 5871 5871 5871 5872 5873 5874 5875 5876
5905 5906 5906 5905 5905 5905 5905 5904 5902 5900 5899 5897 5896 5894 5892 5891 5890 5888 5886 5884 5883 5882 5880 5879 5878 5877 5876 5875 5874 5873 5873 5872 5871 5871 5871 5870 5870 5870 5870 5870 5870 5870 5870 5870 5871 5872 5873 5874 5875
5905 5906 5906 5905 5907 5907 5906 5905 5903 5900 5899 5898 5896 5895 5893 5892 5890 5888 5887 5885 5884 5882 5881 5879 5878 5877 5876 5875 5874 5873 5873 5872 5872 5871 5871 5870 5870 5870 5870 5870 5870 5870 5869 5869 5869 5871 5873 5874 5875
5905 5906 5906 5908 5909 5908 5907 5905 5903 5901 5899 5898 5896 5895 5893 5892 5890 5889 5887 5885 5884 5883 5881 5880 5879 5877 5876 5875 5874 5874 5873 5873 5872 5871 5871 5870 5870 5870 5870 5870 5870 5870 5869 5869 5870 5871 5872 5873 5875
5905 5905 5906 5908 5909 5908 5907 5905 5903 5901 5900 5898 5896 5895 5893 5892 5891 5889 5887 5885 5884 5883 5881 5880 5879 5878 5877 5876 5875 5874 5874 5873 5872 5872 5871 5871 5871 5871 5870 5870 5870 5870 5870 5870 5870 5871 5872 5873 5874
5904 5905 5908 5908 5907 5908 5906 5904 5903 5902 5899 5897 5896 5894 5893 5892 5891 5889 5887 5885 5884 5883 5882 5880 5879 5878 5877 5876 5876 5875 5874 5874 5873 5872 5872 5871 5871 5871 5870 5870 5870 5870 5870 5870 5870 5871 5872 5872 5873
5904 5905 5908 5908 5909 5907 5907 5904 5903 5902 5900 5897 5896 5894 5893 5892 5891 5889 5888 5886 5884 5883 5882 5880 5879 5878 5877 5876 5876 5875 5875 5874 5873 5873 5872 5872 5871 5871 5870 5870 5870 5870 5869 5870 5870 5870 5871 5872 5873
5903 5906 5907 5909 5909 5908 5906 5903 5902 5901 5899 5897 5896 5895 5893 5892 5891 5889 5888 5886 5885 5883 5882 5880 5879 5878 5878 5877 5876 5876 5875 5874 5874 5873 5873 5872 5872 5871 5870 5870 5870 5869 5869 5869 5870 5870 5871 5871 5872
5902 5905 5906 5908 5909 5907 5905 5903 5902 5900 5899 5898 5896 5895 5893 5892 5891 5890 5888 5886 5885 5883 5882 5880 5879 5879 5878 5877 5877 5876 5876 5875 5874 5874 5873 5872 5872 5871 5871 5870 5869 5869 5869 5869 5869 5870 5870 5870 5871
5900 5903 5904 5905 5906 5905 5904 5903 5901 5899 5897 5896 5895 5894 5893 5892 5891 5890 5888 5887 5885 5884 5882 5881 5880 5879 5879 5878 5877 5876 5876 5875 5875 5874 5873 5873 5872 5871 5870 5870 5870 5869 5869 5869 5869 5869 5869 5869 5870
5899 5901 5901 5902 5902 5902 5902 5901 5901 5899 5897 5896 5894 5894 5892 5892 5891 5890 5888 5887 5885 5884 5883 5881 5880 5879 5879 5878 5877 5876 5876 5876 5875 5874 5874 5873 5872 5871 5871 5870 5870 5870 5869 5869 5869 5869 5868 5869 5869
5897 5898 5898 5899 5899 5899 5899 5900 5899 5898 5897 5895 5894 5893 5891 5891 5891 5889 5888 5887 5885 5884 5883 5882 5881 5880 5879 5879 5878 5877 5876 5876 5875 5874 5874 5873 5872 5872 5871 5870 5870 5870 5869 5869 5869 5868 5868 5868 5868
5894 5895 5896 5896 5896 5897 5897 5897 5897 5896 5895 5894 5893 5893 5891 5890 5890 5889 5888 5886 5885 5884 5883 5882 5881 5880 5879 5878 5878 5877 5876 5876 5875 5874 5874 5873 5872 5872 5871 5871 5870 5870 5869 5869 5869 5868 5868 5868 5868
5891 5893 5893 5893 5894 5894 5895 5895 5895 5894 5893 5892 5892 5891 5891 5889 5889 5888 5887 5885 5885 5884 5883 5882 5881 5880 5879 5878 5878 5877 5876 5875 5875 5874 5874 5873 5872 5872 5871 5870 5870 5869 5868 5868 5868 5868 5867 5867 5867
5887 5889 5889 5890 5891 5892 5893 5893 5893 5892 5891 5890 5890 5890 5889 5888 5887 5887 5886 5885 5884 5883 5882 5881 5880 5879 5879 5878 5877 5877 5876 5875 5875 5874 5874 5873 5872 5871 5871 5870 5869 5868 5868 5867 5867 5867 5867 5866 5866
5884 5885 5886 5888 5889 5890 5892 5891 5891 5890 5888 5888 5888 5888 5888 5886 5885 5885 5885 5884 5883 5882 5881 5881 5880 5879 5878 5877 5877 5876 5875 5875 5874 5874 5873 5872 5871 5871 5870 5869 5869 5868 5867 5866 5866 5866 5866 5865 5865
5881 5882 5884 5887 5887 5888 5888 5889 5888 5888 5886 5886 5886 5886 5885 5885 5884 5883 5883 5882 5881 5881 5880 5879 5879 5878 5877 5877 5876 5875 5875 5874 5873 5873 5872 5871 5871 5870 5869 5869 5868 5867 5866 5865 5865 5865 5865 5864 5864
5879 5881 5884 5886 5886 5886 5886 5886 5886 5886 5885 5884 5883 5884 5884 5883 5882 5881 5880 5880 5880 5879 5878 5878 5877 5877 5876 5876 5875 5874 5874 5873 5872 5871 5871 5870 5869 5869 5868 5867 5867 5866 5865 5865 5864 5864 5864 5863 5862
5877 5879 5881 5883 5883 5883 5883 5883 5883 5883 5881 5881 5881 5881 5881 5880 5879 5878 5878 5878 5877 5877 5876 5876 5875 5875 5875 5874 5874 5873 5873 5872 5871 5870 5869 5868 5868 5867 5867 5866 5865 5865 5864 5864 5863 5863 5862 5862 5861
5873 5876 5878 5879 5880 5880 5880 5880 5880 5879 5879 5879 5878 5877 5877 5877 5876 5875 5875 5875 5875 5874 5874 5874 5874 5873 5873 5872 5872 5871 5870 5870 5869 5869 5868 5867 5866 5866 5865 5865 5864 5863 5863 5862 5862 5861 5861 5860 5859
5870 5872 5874 5875 5876 5876 5877 5877 5875 5875 5875 5876 5875 5873 5873 5873 5873 5873 5872 5872 5872 5872 5871 5871 5871 5871 5871 5870 5870 5869 5868 5867 5867 5866 5866 5865 5864 5864 5863 5863 5862 5862 5861 5861 5860 5859 5859 5859 5858
5867 5868 5869 5871 5872 5873 5874 5873 5872 5871 5872 5872 5871 5870 5870 5868 5868 5869 5869 5869 5869 5869 5868 5868 5868 5868 5868 5868 5867 5867 5866 5865 5865 5863 5863 5863 5863 5862 5861 5861 5860 5860 5859 5859 5858 5858 5858 5857 5856
5862 5864 5865 5866 5867 5869 5870 5869 5869 5868 5867 5867 5867 5866 5866 5866 5865 5865 5865 5865 5866 5865 5865 5865 5865 5865 5865 5865 5864 5864 5863 5863 5862 5861 5861 5861 5860 5860 5859 5858 5858 5857 5857 5857 5856 5856 5855 5855 5855
5857 5859 5860 5862 5863 5864 5865 5865 5864 5863 5861 5863 5863 5862 5862 5862 5862 5862 5862 5862 5862 5862 5862 5862 5862 5862 5861 5861 5861 5861 5860 5860 5859 5859 5858 5858 5857 5857 5856 5855 5855 5854 5854 5854 5854 5853 5853 5852 5852
5853 5856 5857 5858 5859 5860 5861 5861 5860 5859 5858 5858 5858 5858 5858 5858 5858 5857 5857 5857 5858 5858 5857 5857 5857 5858 5857 5857 5857 5857 5857 5856 5856 5855 5855 5855 5854 5853 5853 5852 5851 5851 5851 5851 5850 5850 5850 5850 5849
5850 5852 5854 5855 5855 5856 5856 5856 5855 5855 5854 5854 5854 5854 5853 5852 5852 5853 5852 5853 5853 5853 5853 5853 5852 5853 5853 5853 5853 5853 5853 5852 5852 5852 5851 5851 5851 5850 5849 5849 5848 5848 5848 5847 5847 5847 5846 5846 5846
5845 5847 5850 5851 5851 5852 5852 5852 5851 5850 5849 5850 5849 5848 5848 5847 5847 5847 5846 5847 5847 5847 5847 5847 5847 5847 5848 5848 5848 5848 5848 5848 5848 5847 5847 5847 5847 5846 5846 5845 5844 5844 5843 5843 5843 5842 5842 5842 5842
5841 5842 5844 5846 5846 5847 5848 5847 5846 5844 5844 5844 5842 5842 5842 5842 5841 5841 5841 5841 5841 5841 5841 5841 5841 5842 5842 5843 5843 5843 5843 5843 5842 5842 5842 5842 5842 5842 5841 5841 5840 5839 5839 5839 5838 5838 5838 5838 5838
5836 5837 5838 5840 5841 5842 5842 5844 5839 5839 5839 5838 5836 5836 5836 5835 5834 5835 5835 5835 5835 5835 5835 5835 5835 5836 5836 5837 5837 5837 5837 5837 5837 5837 5836 5836 5836 5836 5836 5835 5835 5834 5834 5833 5833 5833 5833 5833 5833
5830 5831 5832 5834 5835 5836 5836 5837 5833 5833 5833 5833 5831 5830 5829 5829 5830 5829 5829 5828 5827 5828 5828 5828 5828 5829 5830 5830 5830 5831 5831 5831 5831 5831 5831 5830 5830 5830 5829 5829 5829 5828 5828 5827 5827 5827 5827 5827 5827